Location: Wingville
(42.9917°N, 90.4915°W)
Time: 09:49:49
(UTC+00:00)

CAS-4B - Visible Passes

Search period start: 04 July 2022 00:00
Search period end: 14 July 2022 00:00
Orbit: 524 x 536 km, 43.0° (Epoch: 03 July)

Date Brightness Start Highest point End Pass type
(mag) Time Alt. Az. Time Alt. Az. Time Alt. Az.
04 Jul ? 06:54:40 21° E 06:54:40 21° E 06:56:16 10° E visible
04 Jul ? 08:29:51 23° W 08:32:18 87° S 08:36:22 10° E visible
05 Jul ? 06:42:28 20° E 06:42:28 20° E 06:43:51 10° E visible
05 Jul ? 08:17:39 26° W 08:19:52 90° ENE 08:23:55 10° E visible
06 Jul ? 06:30:18 18° E 06:30:18 18° E 06:31:25 10° E visible
06 Jul ? 08:05:30 30° W 08:07:24 88° N 08:11:28 10° E visible
06 Jul ? 09:43:23 10° W 09:47:23 65° SSW 09:51:25 10° ESE visible
07 Jul ? 06:18:13 15° E 06:18:13 15° E 06:18:58 10° E visible
07 Jul ? 07:53:24 37° W 07:54:57 88° N 07:59:00 10° E visible
07 Jul ? 09:30:56 10° W 09:34:54 58° SSW 09:38:54 10° ESE visible
08 Jul ? 06:06:15 12° E 06:06:15 12° E 06:06:31 10° E visible
08 Jul ? 07:41:28 49° W 07:42:30 88° N 07:46:33 10° E visible
08 Jul ? 09:18:29 10° W 09:22:25 51° SSW 09:26:21 10° SE visible
09 Jul ? 07:29:49 80° W 07:30:02 90° SSE 07:34:05 10° E visible
09 Jul ? 09:06:03 10° W 09:09:54 45° SSW 09:13:46 10° SE visible
10 Jul ? 07:18:45 45° ESE 07:18:45 45° ESE 07:21:37 10° E visible
10 Jul ? 08:54:03 12° W 08:57:24 38° SSW 09:01:09 10° SE visible
11 Jul ? 03:41:34 10° SW 03:44:33 33° S 03:44:33 33° S visible
11 Jul ? 07:08:44 12° ESE 07:08:44 12° ESE 07:09:08 10° ESE visible
11 Jul ? 08:44:07 30° SW 08:44:51 33° SSW 08:48:30 10° SE visible
12 Jul ? 03:28:57 10° SW 03:32:45 42° SSE 03:34:42 24° E visible
12 Jul ? 05:08:34 10° W 05:10:00 21° W 05:10:00 21° W visible
12 Jul ? 08:35:23 12° SSE 08:35:23 12° SSE 08:35:47 10° SSE visible
13 Jul ? 03:16:20 10° SW 03:20:13 48° SSE 03:23:43 12° E visible
13 Jul ? 04:56:05 10° W 04:58:58 45° W 04:58:58 45° W visible
